Wind_Speed
6 11 10 3 4 2 11 11 6 10 1 10 30 17 11 3 11 6 24 22 26 23 25 23 23 23 22 20 16 11 10 11 12 14 15 15 15 14 12 11 10 10 11 10 11 12 13 12 13
6 5 5 3 4 3 3 5 4 10 17 14 17 15 16 12 15 24 26 24 27 24 24 24 23 22 20 18 16 13 11 11 11 11 12 13 12 11 10 10 10 9 9 10 10 10 11 10 10
5 3 8 5 4 6 10 5 12 12 14 8 6 16 10 19 18 23 24 26 24 22 20 24 23 22 19 18 16 14 12 11 10 10 9 9 9 10 9 9 8 8 8 8 9 10 8 9 9
6 9 9 3 15 14 11 15 10 12 6 15 12 14 15 15 15 21 25 27 23 21 19 23 22 21 19 17 15 13 12 11 9 8 7 6 6 6 6 6 5 5 6 7 6 6 5 6 9
12 11 5 6 9 9 6 7 17 6 15 15 16 18 16 11 14 23 25 25 21 23 17 20 20 19 18 15 14 13 12 11 9 7 6 5 4 4 3 2 1 2 3 5 5 5 5 5 5
14 13 1 7 24 18 10 20 10 16 17 16 19 19 12 12 19 23 22 22 21 24 18 16 19 18 16 15 13 13 12 12 10 8 6 5 5 4 3 3 5 3 4 5 6 6 6 6 6
16 7 6 16 13 10 0 15 18 3 16 24 9 13 11 18 20 22 21 18 23 20 17 19 20 18 15 14 13 13 12 11 11 10 7 6 5 4 5 6 6 5 6 7 8 8 9 10 10
6 7 10 8 9 4 7 13 16 17 8 15 8 6 15 20 20 21 20 19 21 21 14 13 21 18 15 14 13 13 13 12 12 10 9 7 6 4 11 12 9 9 8 9 11 10 10 11 12
11 7 8 10 11 6 6 10 18 13 28 15 12 19 20 20 20 20 19 20 19 15 13 14 14 15 13 10 12 12 12 12 12 10 10 9 6 7 15 6 8 10 9 11 12 11 10 10 11
1 2 4 8 7 4 8 10 31 14 12 5 18 18 18 19 20 20 19 20 17 15 13 15 13 13 11 12 12 7 10 11 10 9 8 9 11 13 7 4 6 8 9 10 10 9 8 9 8
4 6 3 7 8 11 11 6 12 18 6 4 20 17 17 18 18 18 17 18 17 16 14 16 13 15 11 12 14 10 7 4 7 6 6 9 12 22 14 4 4 8 7 8 9 8 8 4 2
6 3 3 4 7 2 6 9 4 10 8 10 19 16 15 16 16 17 17 16 17 16 15 16 14 15 12 10 9 9 5 7 9 12 14 11 4 7 3 5 5 6 6 6 11 13 7 10 11
7 1 7 8 6 2 1 5 6 10 10 8 16 13 12 13 13 14 14 17 17 16 13 16 18 17 18 16 12 12 13 14 13 11 14 14 4 6 5 10 10 8 7 5 5 10 9 12 8
5 5 6 4 2 2 1 4 2 11 6 4 11 14 17 17 15 14 14 17 17 16 17 14 11 15 17 23 15 13 8 9 13 16 11 9 8 5 9 8 7 12 12 8 8 11 13 13 14
5 12 9 11 3 2 8 11 4 7 2 8 6 8 20 18 18 20 17 17 17 18 19 17 17 16 15 15 22 19 11 11 12 6 9 12 6 8 7 7 8 3 7 10 11 11 10 15 12
11 14 9 7 3 6 8 6 6 3 5 2 7 9 12 16 20 13 17 16 19 19 21 17 16 18 19 12 11 13 11 14 10 13 13 11 10 11 14 14 6 5 9 5 10 9 7 10 15
11 9 4 3 8 2 7 4 10 4 3 1 6 12 8 11 18 15 15 17 22 21 21 19 19 15 21 16 15 12 14 14 14 14 16 13 12 13 9 8 6 7 6 8 9 7 8 8 11
2 16 9 3 6 2 11 7 13 6 1 7 5 12 20 20 19 18 21 22 20 23 26 23 19 18 17 16 15 15 15 15 15 15 15 16 10 9 12 10 7 10 7 7 9 6 5 8 3
2 8 8 7 7 3 10 4 11 7 5 1 2 3 21 21 12 16 14 22 24 25 25 27 21 23 23 20 19 16 18 17 16 17 18 13 14 14 17 15 13 9 9 9 6 6 6 8 5
7 9 13 8 8 5 9 3 10 8 5 3 2 4 4 3 3 9 14 13 15 20 17 17 19 24 23 22 23 17 14 15 18 18 18 21 19 18 17 14 8 12 9 11 9 7 10 8 9
9 13 15 6 1 8 10 7 20 32 42 4 3 3 8 4 1 4 10 12 16 19 19 23 23 25 24 23 19 20 21 17 19 21 21 22 22 16 15 13 12 12 16 12 11 9 9 8 10
15 6 10 3 8 9 15 3 14 13 17 19 8 8 7 1 6 2 4 10 11 20 19 22 18 21 22 22 22 21 21 23 21 23 23 18 22 18 13 13 14 18 19 15 14 10 13 11 9
15 6 9 12 12 15 13 6 3 4 11 22 12 8 9 2 8 4 4 4 6 9 12 19 17 17 16 17 21 23 24 27 25 23 24 24 17 11 8 11 14 17 17 16 18 13 15 13 10
6 12 13 15 12 12 16 8 5 8 12 18 9 7 7 7 11 7 5 5 5 6 8 10 10 13 14 16 18 22 26 27 31 30 20 19 19 16 15 16 22 19 16 16 19 19 20 20 14
9 13 11 11 11 2 11 9 8 21 19 10 14 9 8 10 7 8 7 7 8 9 8 7 8 10 11 14 18 21 25 29 32 38 31 33 20 17 18 16 15 13 13 14 16 19 21 21 17
15 16 10 7 8 11 12 8 3 12 12 12 16 13 12 11 9 9 8 7 7 7 7 6 7 7 8 11 12 18 25 30 33 35 34 27 19 16 7 15 17 12 11 15 16 20 18 19 20
16 15 17 11 19 6 9 8 19 30 6 14 13 13 12 10 12 11 9 8 8 7 5 4 4 4 4 6 13 19 26 25 24 24 30 22 21 18 14 17 19 16 14 15 18 19 20 18 18
14 13 15 8 4 4 4 5 8 22 12 12 12 15 13 12 11 10 9 9 8 6 4 3 2 3 4 8 10 19 17 15 8 8 13 19 16 15 11 13 15 12 14 17 20 19 18 19 18
10 12 13 7 7 5 8 6 14 21 20 12 9 12 15 14 13 10 9 8 7 6 4 2 1 2 5 8 8 12 11 11 11 11 10 13 11 11 16 18 14 18 18 17 18 20 20 19 18
13 6 11 7 8 10 10 9 22 21 8 11 12 10 14 15 13 10 8 7 5 4 2 1 1 2 4 8 12 6 5 7 8 12 3 7 9 11 14 16 15 17 18 17 21 19 20 22 23
Wind_Direction
57 34 20 283 295 52 69 65 338 99 297 59 81 91 141 322 162 86 143 144 145 157 160 157 158 162 165 167 167 151 131 119 114 107 107 112 118 118 112 103 96 95 91 90 101 111 109 110 109
88 289 267 285 140 57 24 149 144 66 78 42 81 129 66 67 91 124 142 142 145 148 154 160 157 160 165 167 168 163 152 134 125 122 113 113 118 117 111 106 99 89 98 106 108 114 119 121 118
82 293 260 195 184 41 75 76 83 35 90 119 78 73 146 95 111 136 139 143 143 145 151 163 160 160 161 160 160 159 157 149 139 130 124 120 117 115 112 108 107 106 101 109 116 115 123 132 124
327 260 264 296 7 43 62 75 107 146 88 79 64 83 73 101 123 134 142 144 141 144 169 159 166 164 166 167 167 168 168 167 156 144 140 140 136 126 124 113 96 102 126 131 133 119 127 136 126
268 269 319 132 154 87 62 51 100 104 63 56 102 88 87 105 118 136 144 146 143 152 172 162 167 170 172 176 181 185 186 185 181 173 170 162 169 168 157 139 22 339 163 167 166 165 168 164 158
280 254 210 80 27 61 319 49 333 50 71 101 88 88 95 123 134 142 146 145 149 166 181 178 169 171 175 181 188 193 196 193 195 207 201 194 195 207 237 262 288 248 232 212 195 202 205 204 216
255 277 50 103 162 123 183 48 67 351 58 74 81 48 111 132 140 145 150 143 157 155 172 183 181 179 182 185 195 202 203 201 205 219 226 226 219 240 275 288 277 253 243 238 233 225 227 241 251
311 301 68 44 72 90 18 70 40 57 48 108 104 169 147 145 149 150 152 149 140 154 176 183 189 190 192 195 199 208 210 212 220 224 230 231 237 254 260 260 260 260 243 237 239 241 247 250 255
303 286 58 42 86 106 13 76 97 359 356 74 59 127 138 152 154 155 157 151 151 154 152 162 178 192 192 204 209 212 214 217 223 225 230 231 236 250 322 259 243 255 253 249 249 245 245 252 250
327 245 58 340 47 51 110 86 108 116 52 184 97 108 135 152 160 162 166 156 163 172 165 173 176 187 184 191 229 254 243 225 228 224 229 235 219 238 276 181 237 248 247 252 246 248 254 245 244
42 87 28 120 26 339 345 155 59 136 187 103 120 129 146 155 165 169 175 167 172 176 184 179 175 195 183 191 220 276 223 260 266 270 266 267 249 235 145 163 272 258 255 272 245 251 254 237 215
248 162 167 82 157 132 343 351 28 62 81 12 121 135 149 158 168 172 178 168 172 174 192 177 175 190 181 193 219 244 230 224 223 257 273 278 263 269 273 293 287 271 251 231 211 225 241 218 227
268 269 194 158 182 148 187 297 45 60 68 80 109 126 146 165 168 175 180 179 174 178 192 188 187 200 202 194 208 224 218 222 239 246 278 262 274 270 259 240 270 286 292 242 252 234 235 212 213
19 274 287 210 257 319 315 285 85 97 75 79 125 153 162 169 173 173 183 181 180 187 194 197 210 215 216 205 213 204 239 268 220 239 246 277 249 293 230 226 252 269 269 267 264 244 233 217 220
225 267 267 206 110 316 339 260 100 69 162 125 156 164 163 171 183 176 183 185 179 190 195 198 199 207 229 244 216 206 202 235 249 246 222 245 230 233 249 247 264 228 275 271 271 250 244 221 211
237 249 254 113 67 130 248 150 152 167 109 298 138 146 178 169 179 189 177 182 182 190 195 192 204 208 231 251 234 238 225 237 241 241 230 239 245 235 225 245 218 242 260 260 280 245 249 238 214
213 215 303 169 134 288 251 194 135 143 91 256 161 174 186 184 174 197 185 191 187 190 188 193 201 211 223 222 226 232 240 230 241 235 241 243 236 241 257 223 226 256 281 258 272 242 257 256 235
51 289 153 197 119 20 287 91 147 126 31 163 159 179 99 277 188 195 196 200 203 195 189 194 198 204 205 228 236 220 225 239 240 248 255 237 258 265 241 241 224 244 275 273 245 230 226 211 267
292 327 315 264 116 274 293 307 122 92 116 90 272 209 150 194 201 202 209 200 192 197 192 189 186 215 225 210 227 244 217 230 237 246 254 260 239 258 223 247 209 221 245 264 263 226 220 232 227
263 243 262 236 148 196 252 330 79 97 73 83 87 229 117 121 223 193 220 221 214 196 216 194 196 222 233 212 219 232 243 234 243 246 245 251 256 231 233 257 218 221 240 251 255 251 229 223 205
242 255 265 352 138 222 244 85 37 354 343 314 115 237 109 117 328 228 227 248 215 200 203 220 209 220 238 227 218 228 226 234 242 240 241 252 262 238 257 255 245 215 222 245 263 255 249 234 206
250 268 355 302 261 270 265 145 46 358 307 322 166 44 107 164 110 338 321 211 234 215 205 212 216 222 236 246 231 236 236 232 234 249 252 248 246 241 241 252 251 239 233 218 250 252 251 258 247
265 352 309 296 274 261 81 77 279 299 323 287 291 137 101 351 94 50 13 349 184 212 205 202 215 228 237 241 247 245 247 240 233 240 230 238 243 237 254 239 248 241 236 231 235 229 247 251 237
306 285 278 249 241 257 141 131 216 224 203 254 128 131 123 101 101 74 65 99 139 158 180 192 207 223 239 250 259 259 254 250 247 235 235 234 228 226 246 233 236 241 246 236 230 232 239 247 233
238 250 258 240 226 312 314 157 202 224 225 157 147 139 122 105 106 87 89 110 135 152 169 191 224 240 237 248 260 265 269 263 252 241 229 259 227 225 228 242 248 243 248 244 240 239 241 247 244
226 246 266 285 291 222 243 75 185 207 152 119 124 136 128 117 111 103 107 114 136 156 172 182 212 224 236 252 282 299 293 269 262 247 238 226 234 271 247 242 242 242 258 247 246 245 244 247 247
250 251 266 270 257 227 45 30 21 343 190 135 130 126 115 115 117 117 117 118 126 136 156 188 215 227 272 320 295 309 310 284 258 237 233 248 222 246 198 243 248 250 253 250 250 253 250 248 242
267 283 296 268 3 61 29 67 137 265 259 151 148 131 124 132 117 112 111 116 121 128 134 157 211 264 283 295 347 355 21 38 97 179 221 222 219 241 262 251 261 262 253 256 253 253 247 254 248
209 242 259 311 127 101 350 307 210 208 233 137 133 152 140 134 123 118 117 121 123 127 130 137 50 285 307 314 332 16 44 55 61 75 133 203 222 267 292 281 279 261 259 259 256 254 247 247 251
277 353 303 284 38 222 227 224 249 213 169 128 164 101 105 112 118 121 122 121 119 115 102 86 48 343 300 276 314 328 48 100 83 105 114 258 263 265 278 296 288 271 263 260 260 261 254 243 251
Height
1502 1503 1503 1507 1509 1499 1490 1497 1491 1494 1491 1490 1494 1503 1511 1510 1513 1521 1521 1527 1529 1532 1535 1539 1542 1546 1549 1552 1555 1558 1561 1563 1564 1565 1566 1568 1569 1571 1572 1574 1575 1576 1577 1577 1578 1577 1577 1578 1579
1500 1508 1508 1506 1518 1515 1511 1492 1495 1487 1489 1492 1494 1502 1507 1504 1506 1514 1522 1526 1531 1533 1536 1539 1543 1547 1550 1553 1557 1560 1562 1565 1566 1567 1568 1569 1571 1572 1573 1574 1576 1577 1578 1579 1580 1579 1579 1580 1581
1504 1508 1505 1501 1509 1507 1498 1492 1486 1488 1491 1494 1501 1499 1508 1509 1514 1518 1523 1529 1532 1535 1539 1540 1544 1547 1551 1555 1558 1561 1563 1565 1567 1568 1570 1572 1573 1574 1575 1576 1577 1578 1579 1580 1581 1582 1581 1581 1582
1505 1505 1501 1499 1508 1490 1487 1485 1488 1491 1491 1493 1498 1505 1513 1514 1518 1521 1526 1530 1534 1538 1538 1542 1545 1549 1552 1556 1559 1561 1564 1566 1568 1570 1572 1573 1574 1576 1577 1578 1580 1580 1580 1580 1581 1583 1584 1583 1583
1506 1501 1495 1502 1505 1492 1485 1484 1484 1488 1489 1495 1499 1507 1516 1519 1521 1525 1529 1531 1535 1538 1540 1544 1547 1550 1553 1556 1559 1562 1564 1566 1569 1571 1572 1574 1576 1577 1579 1580 1580 1581 1582 1581 1581 1583 1583 1583 1583
1501 1494 1500 1500 1513 1497 1491 1488 1495 1488 1495 1496 1500 1506 1515 1520 1523 1527 1530 1531 1534 1536 1541 1545 1548 1551 1554 1556 1559 1561 1564 1567 1570 1570 1572 1575 1577 1579 1580 1581 1581 1581 1582 1582 1581 1582 1583 1583 1584
1497 1489 1489 1496 1509 1500 1491 1491 1492 1498 1496 1503 1507 1510 1517 1519 1524 1527 1530 1532 1533 1537 1539 1543 1547 1551 1553 1556 1558 1561 1564 1567 1568 1570 1574 1574 1577 1578 1579 1580 1581 1580 1580 1581 1581 1581 1582 1582 1582
1496 1489 1490 1489 1497 1503 1490 1493 1495 1496 1501 1498 1500 1514 1515 1520 1524 1527 1530 1533 1535 1538 1539 1542 1546 1550 1552 1555 1557 1560 1563 1566 1567 1570 1572 1574 1575 1576 1576 1577 1578 1579 1578 1580 1580 1579 1580 1581 1580
1495 1496 1500 1497 1496 1496 1492 1492 1496 1500 1510 1504 1501 1504 1512 1520 1524 1528 1531 1534 1538 1540 1542 1545 1546 1549 1551 1554 1555 1558 1561 1564 1566 1569 1570 1572 1575 1574 1570 1573 1575 1577 1576 1577 1578 1578 1577 1578 1578
1494 1498 1498 1492 1489 1490 1492 1493 1501 1503 1523 1500 1507 1508 1516 1521 1525 1528 1530 1533 1539 1542 1544 1545 1549 1551 1552 1556 1555 1558 1560 1563 1565 1568 1569 1571 1572 1569 1572 1572 1574 1574 1574 1575 1576 1576 1576 1576 1578
1492 1496 1491 1493 1497 1494 1490 1491 1493 1495 1504 1499 1500 1509 1516 1521 1524 1527 1529 1532 1537 1541 1544 1545 1548 1550 1553 1555 1555 1557 1559 1563 1565 1568 1568 1569 1569 1554 1566 1569 1571 1572 1572 1573 1574 1574 1574 1575 1578
1494 1493 1494 1493 1496 1495 1494 1492 1489 1490 1493 1497 1500 1510 1516 1520 1523 1525 1528 1532 1537 1540 1543 1545 1548 1550 1553 1556 1556 1556 1559 1563 1566 1567 1566 1566 1566 1565 1567 1566 1569 1570 1572 1572 1572 1572 1572 1574 1576
1491 1487 1489 1491 1491 1491 1493 1491 1493 1492 1495 1499 1503 1511 1516 1519 1522 1524 1527 1530 1535 1538 1542 1544 1546 1548 1551 1554 1556 1558 1559 1561 1561 1563 1564 1555 1562 1566 1566 1568 1569 1568 1570 1570 1570 1570 1572 1573 1574
1490 1490 1487 1487 1487 1487 1489 1490 1492 1494 1497 1500 1502 1507 1510 1514 1518 1522 1524 1528 1532 1536 1541 1544 1544 1545 1548 1551 1552 1555 1557 1553 1557 1559 1560 1562 1563 1564 1564 1567 1569 1569 1568 1568 1568 1570 1569 1571 1572
1493 1491 1483 1483 1486 1488 1490 1490 1489 1493 1495 1497 1499 1502 1506 1510 1513 1514 1518 1524 1529 1533 1537 1541 1543 1544 1545 1548 1550 1552 1555 1556 1555 1556 1557 1561 1561 1562 1561 1564 1566 1566 1565 1566 1567 1567 1567 1569 1570
1490 1486 1493 1482 1486 1487 1489 1499 1491 1493 1492 1494 1496 1499 1503 1505 1506 1514 1515 1519 1523 1529 1533 1537 1541 1543 1542 1545 1548 1550 1553 1554 1553 1554 1557 1557 1557 1559 1559 1559 1560 1561 1561 1564 1564 1564 1566 1567 1567
1486 1496 1491 1486 1483 1486 1485 1489 1490 1491 1491 1493 1494 1497 1505 1509 1509 1507 1510 1514 1517 1523 1526 1531 1537 1540 1540 1542 1545 1548 1550 1552 1552 1553 1552 1553 1557 1558 1560 1557 1556 1556 1559 1560 1561 1563 1563 1563 1565
1504 1490 1484 1489 1483 1485 1485 1484 1486 1490 1489 1491 1491 1497 1501 1515 1509 1507 1504 1508 1521 1524 1516 1519 1531 1537 1539 1540 1542 1544 1547 1549 1549 1549 1547 1551 1555 1557 1558 1560 1553 1554 1558 1560 1560 1560 1562 1563 1563
1484 1486 1489 1480 1480 1489 1488 1483 1482 1489 1491 1493 1491 1494 1499 1504 1507 1502 1500 1511 1508 1508 1521 1516 1522 1531 1535 1538 1538 1540 1541 1544 1546 1545 1545 1547 1552 1551 1552 1557 1551 1552 1555 1557 1557 1557 1558 1559 1561
1484 1489 1487 1473 1475 1486 1486 1485 1483 1489 1493 1495 1496 1496 1498 1502 1503 1503 1502 1509 1512 1516 1513 1511 1521 1528 1532 1535 1536 1537 1538 1540 1541 1541 1541 1541 1546 1548 1550 1551 1548 1549 1551 1551 1553 1555 1555 1556 1559
1486 1486 1480 1482 1476 1477 1482 1497 1508 1515 1516 1502 1499 1499 1500 1503 1503 1503 1504 1504 1506 1509 1510 1512 1520 1525 1528 1532 1534 1535 1537 1538 1537 1537 1537 1536 1533 1536 1537 1541 1546 1547 1547 1548 1549 1552 1552 1554 1555
1487 1469 1471 1479 1488 1502 1474 1527 1539 1540 1532 1510 1497 1500 1502 1504 1504 1505 1505 1506 1507 1507 1511 1513 1520 1524 1528 1531 1534 1535 1533 1533 1534 1532 1532 1530 1530 1509 1531 1533 1539 1546 1545 1545 1545 1548 1549 1551 1553
1481 1470 1478 1477 1482 1481 1496 1520 1538 1537 1525 1514 1502 1500 1503 1504 1505 1507 1507 1507 1509 1512 1515 1518 1521 1524 1527 1529 1530 1530 1530 1530 1531 1528 1528 1527 1526 1525 1525 1529 1534 1541 1540 1540 1542 1545 1546 1548 1549
1473 1477 1476 1474 1478 1497 1500 1525 1540 1535 1516 1510 1498 1501 1502 1504 1505 1507 1508 1508 1510 1513 1517 1520 1522 1524 1526 1526 1527 1526 1524 1525 1523 1523 1522 1527 1533 1531 1533 1535 1536 1534 1534 1535 1539 1541 1543 1544 1545
1475 1482 1498 1501 1497 1502 1475 1495 1504 1495 1496 1488 1494 1499 1501 1503 1505 1508 1509 1510 1512 1514 1517 1520 1522 1523 1524 1526 1525 1523 1520 1517 1514 1511 1517 1506 1527 1529 1530 1535 1534 1529 1528 1530 1534 1537 1539 1538 1541
1473 1471 1489 1514 1505 1508 1468 1501 1495 1488 1488 1491 1493 1497 1499 1502 1506 1508 1510 1512 1514 1516 1518 1521 1521 1522 1523 1522 1521 1518 1513 1507 1503 1504 1507 1514 1518 1515 1511 1529 1530 1525 1524 1527 1531 1533 1534 1535 1536
1473 1478 1456 1477 1462 1477 1486 1497 1501 1505 1495 1493 1496 1497 1500 1502 1505 1508 1511 1514 1516 1518 1520 1521 1521 1521 1521 1522 1520 1516 1507 1496 1497 1498 1503 1507 1516 1516 1505 1526 1528 1523 1522 1524 1526 1528 1529 1530 1531
1464 1459 1476 1462 1502 1519 1513 1523 1553 1536 1503 1491 1492 1496 1500 1503 1506 1510 1513 1515 1517 1519 1520 1521 1521 1521 1521 1520 1518 1514 1505 1496 1494 1500 1504 1510 1514 1518 1520 1524 1522 1518 1521 1522 1522 1524 1525 1526 1527
1465 1471 1463 1460 1493 1541 1563 1549 1520 1506 1494 1483 1490 1493 1496 1500 1505 1511 1514 1516 1518 1519 1521 1521 1521 1521 1521 1519 1518 1516 1511 1508 1507 1505 1510 1515 1516 1515 1514 1516 1515 1516 1518 1518 1518 1518 1521 1523 1524
1452 1463 1463 1483 1513 1495 1490 1544 1489 1493 1482 1485 1490 1493 1496 1500 1506 1512 1515 1517 1519 1521 1521 1522 1521 1522 1522 1520 1518 1517 1516 1514 1513 1512 1514 1515 1518 1516 1516 1516 1513 1513 1515 1515 1514 1515 1516 1517 1518